Home > Weather > Male > Past weeks

Flag for Maldives Past Weather in Male, Maldives — Yesterday and Last 2 Weeks

Now
86 °F

Passing clouds.


Feels Like: 97 °F
Forecast: 82 / 86 °F
Wind: 13 mph from Southwest

Location: Male Airport

Current Time: Jun 27, 2016 at 9:57:48 PM

Latest Report: Jun 27, 2016 at 9:00 PM


Visibility: N/A

Pressure: 29.83 "Hg

Humidity: 75%

Dew Point: 77 °F

Location of MaleLocation

Past Weather in Male — Graph

°F

Male Temperature Yesterday

Maximum temperature yesterday: 90 °F (at 12:00 PM)
Minimum temperature yesterday: 84 °F (at 3:00 AM)
Average temperature yesterday: 86 °F

High & Low Weather Summary for the Past Weeks

 TemperatureHumidityPressure
High90 °F (Jun 17, 11:00 AM)89% (Jun 13, 3:00 AM)29.95 "Hg (Jun 13, 3:00 AM)
Low79 °F (Jun 14, 1:00 PM)62% (Jun 17, 1:00 PM)29.74 "Hg (Jun 16, 4:00 PM)
Average86 °F77%29.82 "Hg
* Reported Jun 12 8:00 PM — Jun 27 8:00 PM, Male, Weather by CustomWeather, © 2016

Note: Actual official high and low records may vary slightly from our data, if they occured in-between our weather recording intervals... More about our weather records

Advertising

Male Weather History for the Previous 24 Hours

Scroll right to see more
 ConditionsComfort  
Time TempWeatherWind HumidityBarometerVisibility
8:00 PM
Mon, Jun 27
86 °FPassing clouds.14 mph70%29.80 "HgN/A
7:00 PM86 °FPassing clouds.14 mph75%29.80 "HgN/A
5:00 PM88 °FPartly sunny.15 mph70%29.77 "HgN/A
2:00 PM90 °FPartly sunny.14 mph63%29.77 "HgN/A
1:00 PM90 °FPartly sunny.12 mph63%29.80 "HgN/A
11:00 AM90 °FPartly sunny.12 mph67%29.83 "HgN/A
10:00 AM88 °FScattered clouds.12 mph70%29.83 "HgN/A
9:00 AM86 °FPassing clouds.8 mph75%29.83 "HgN/A
8:00 AM86 °FScattered clouds.10 mph75%29.83 "HgN/A
7:00 AM84 °FPartly sunny.10 mph79%29.83 "HgN/A
6:00 AM84 °FPartly sunny.9 mph79%29.80 "HgN/A
5:00 AM84 °FPassing clouds.10 mph79%29.80 "HgN/A
2:00 AM84 °FPassing clouds.12 mph79%29.80 "HgN/A
1:00 AM84 °FPassing clouds.12 mph84%29.80 "HgN/A
11:00 PM
Sun, Jun 26
84 °FPassing clouds.10 mph79%29.86 "HgN/A
9:00 PM86 °FPassing clouds.10 mph75%29.86 "HgN/A
Weather by CustomWeather, © 2016

See weather overviewHow to use our weather pages